Location: Banios
(43.0451°N, 0.2335°E)
Time: 11:52:08
(UTC+00:00)

NOSS 3-2 (C) - Pass Details

Date: 25 January 2021
Orbit: 788 x 1424 km, 63.4° (Epoch: 25 February)

Event Time Altitude Azimuth Distance (km) Brightness Sun altitude
Rises 06:38:33 0° 227° (SW) 3,330 6.0 -8.0°
Reaches altitude 10° 06:40:54 10° 232° (SW) 2,445 5.3 -7.6°
Maximum altitude 06:46:27 59° 311° (NW) 1,040 3.4 -6.6°
Drops below altitude 10° 06:52:51 10° 31° (NNE) 2,806 6.1 -5.5°
Sets 06:55:43 0° 36° (NE) 3,863 6.8 -5.1°
